Showing default

OPS 6577 (VELA 5), 1458

Orbit data source: Space-Track

OPS 6577 (VELA 5), 1458 is a payload satellite owned by USAF SSD (US) in HEO that was launched on Tue, 20 Jul 1965 UTC via an ATLAS AGENA D launch vehicle from the Air Force Eastern Test Range (AFETR). Payload-class satellites include a variety of spacecraft equipped with specific instruments for various scientific and technological missions. These include communications satellites like Starlink; space stations such as the ISS; scientific satellites like the Hubble; Earth observation satellites from companies like Planet Labs, Umbra, and HawkEye 360; GPS; miniature CubeSats for education and research; and military/defense satellites.

Loading next visibility...
Identifier
1458, 1965-058A
Orbit
HEO
Country
Flag of USUS
Related business
Manufacturer
TRW
Mission
Spacecraft
Bus & Motor
VELA, BE-3A
Mass
~234 kg wet, 132 kg dry
Launch date (UTC)
1965-07-20 (61 years ago)
Launch vehicle
ATLAS AGENA D
Launch site
Air Force Eastern Test Range (AFETR)
Object type
Payload
Rocket body
Debris
Shape & HBR
POLY, 1.1 m
Radar Cross Section
Medium (>0.1 m² and <1 m²)

Expand to show TLE details & history
Last TLE update: in 1 day

TLE from in 1 day
0 OPS 6577 (VELA 5)
1 01458U 65058A   26259.06465376 -.00001551  00000-0  00000-0 0  9996
2 01458  29.8808  13.7474 5147875 322.9927   0.3889  0.21473435 12248
Epoch: 2026-09-16T01:33Z
TLE epoch observation values (Epoch: 2026-09-16T01:33:06.084Z)
Latitude
-18.20859°
Longitude
-39.48934°
Altitude
49,933.995 km
Speed
3.282 km/s
True Right ascension
22h 35m 13s
True Declination
-18° 11' 44"
Sunlit
Object was in daylight at epoch
Visualization orbit readout
Latitude
Unknown
Longitude
Unknown
Altitude
Unknown
Speed
Unknown
Apparent Right ascension
Unknown
Apparent Declination
Unknown
Sunlit
N/A
Visualization observer readout
Local Sidereal Time
11:13:48
Azimuth
Unknown
Elevation
Unknown
Doppler factor
Unknown
Orbital elements
Apogee altitude
172,059.931 km
Perigee altitude
50,778.646 km
Semi-major axis
117,797.426 km
Eccentricity
0.51479
Inclination
29.8808°
RAAN
13.7474°
Arg. of periapsis
322.9927°
True anomaly
1.41607°
Mean anomaly
0.3889°
Eccentric anomaly
0.80148°
Mean motion
0.05368 °/min
Orbital period
6,705.99 mins
BSTAR
0
Loading maneuver chart data...
Computing Atmospheric mass density...
Loading historical data...
Loading historical data...
Loading historical data...
Loading historical data...
Loading historical data...
Loading historical data...
Loading historical data...
Other satellites on launch #58 in the year 1965 (1965-07-20 UTC)

Documentation

Showing up to 5 results
|